Regional Weather Roundup
Issued by NWS

Home | Current Version | Previous Version | Text Only | Print | Product List | Glossary On
Versions: 1 2 3 4 5 6 7 8 9 10 11 12 13 14 15 16 17 18 19 20 21 22 23 24 25 26 27 28 29 30 31 32 33 34 35 36 37 38 39 40 41 42 43 44 45 46 47 48 49 50
000
ASUS44 KFWD 301903
RWRTX
NORTH TEXAS HOURLY WEATHER ROUNDUP
NATIONAL WEATHER SERVICE FORT WORTH TX
200 PM CDT TUE AUG 30 2016

NOTE: "FAIR" INDICATES FEW OR NO CLOUDS BELOW 12,000 FEET WITH NO
SIGNIFICANT WEATHER AND/OR OBSTRUCTIONS TO VISIBILITY.

TXZ118-119-302000-
DALLAS/FORT WORTH METROPLEX

CITY           SKY/WX    TMP DP  RH WIND       PRES   REMARKS
DFW AIRPORT    PTSUNNY   93  70  46 NE8       30.02F HX  99
DALLAS LOVE    PTSUNNY   95  69  42 NE10      30.02F HX 100
FTW MEACHAM    TSTM      87  72  60 E8        30.03F HX  93
DAL-EXECUTIVE  MOSUNNY   92  70  48 E6        30.02F HX  97
FTW-ALLIANCE   MOSUNNY   90  70  51 E9        30.03F HX  95
ARLINGTON      PTSUNNY   91  70  49 NE10G18   30.03F HX  96
GRAND PRAIRIE  SUNNY     91  70  49 NE12      30.03  HX  97
ADDISON        PTSUNNY   91  72  52 E9        30.04F HX  98
MESQUITE       PTSUNNY   90  72  55 N5        30.02F HX  96
LANCASTER      DRIZZLE   92  70  49 E6        30.03F HX  98
$$

TXZ091>094-102>105-117-120-121-131>134-302000-
NORTH CENTRAL TEXAS

CITY           SKY/WX    TMP DP  RH WIND       PRES   REMARKS
SHRMAN/DENISON NOT AVBL
GAINESVILLE      N/A     89  68  50 E6        30.07F HX  92
BOWIE          MOSUNNY   91  71  50 E5        30.07F HX  98
BRIDGEPORT     MOSUNNY   86  74  68 CALM      30.08F HX  94
DECATUR        CLOUDY    89  68  49 E7        30.07F HX  93
DENTON         LGT RAIN  88  72  58 N8        30.04F HX  94
MCKINNEY       PTSUNNY   84  73  69 NW8       30.04F HX  90
GREENVILLE     SUNNY     91  70  49 NE5       30.03F HX  97
ROCKWALL       HAZE      89  72  57 NE8       30.02F VSB 1/2 HX  95
TERRELL        SUNNY     91  71  51 E7        30.02F HX  97
WAXAHACHIE     PTSUNNY   88  74  62 NE6       30.04F HX  96
CLEBURNE       PTSUNNY   88  75  66 NE9       30.06F HX  97
GRANBURY       PTSUNNY   91  69  47 NE3       30.05F HX  95
$$

TXZ083>090-098>101-113>116-127>130-139>142-154-155-302000-
WESTERN NORTH TEXAS

CITY           SKY/WX    TMP DP  RH WIND       PRES   REMARKS
WICHITA FALLS  PTSUNNY   91  66  43 E7        30.07F HX  93
WF-KICKAPOO    MOSUNNY   91  66  43 E5        30.08F HX  93
VERNON         PTSUNNY   88  62  41 NE5       30.11S
ABILENE        PTSUNNY   85  68  56 NE9       30.11F
ABILENE-DYESS  DRIZZLE   84  68  58 SE14G21   30.09F
CISCO          MOSUNNY   86  68  54 E12       30.12F
GRAHAM         CLOUDY    85  72  63 E7        30.07F HX  91
MINERAL WELLS  SUNNY     88  71  57 E8        30.05F HX  94
STEPHENVILLE   PTSUNNY   89  66  46 CALM      30.10F HX  91
COMANCHE       PTSUNNY   88  68  52 NE10      30.09F HX  91
BROWNWOOD      MOSUNNY   90  68  48 E13       30.07F HX  93
COLEMAN        PTSUNNY   86  65  49 SE9G17    30.09F
$$

TXZ143>147-156>162-174-175-302000-
CENTRAL TEXAS

CITY           SKY/WX    TMP DP  RH WIND       PRES   REMARKS
WACO           MOSUNNY   92  72  51 E8        30.02F HX  99
WACO-TSTC      MOSUNNY   90  72  55 NE7       30.02F HX  96
WACO-MCGREGOR  PTSUNNY   89  72  56 NE8       30.03F HX  96
HILLSBORO      PTSUNNY   87  72  60 NE9       30.03F HX  93
MEXIA          PTSUNNY   87  73  62 CALM      30.01F HX  93
HEARNE         PTSUNNY   89  73  59 NE6       30.00F HX  96
CAMERON        MOSUNNY   90  73  57 NE6       29.99F HX  98
TEMPLE         PTSUNNY   87  73  62 E9        30.03F HX  94
KILLEEN        PTSUNNY   86  71  59 VRB7      30.03F HX  91
FORT HOOD      SUNNY     88  71  56 E7        30.01F HX  93
HAMILTON       SUNNY     88  69  53 E7        30.08F HX  93
$$

TXZ095>097-106>112-122>126-135>138-148>153-164>167-302000-
EAST TEXAS

CITY           SKY/WX    TMP DP  RH WIND       PRES   REMARKS
PARIS          SUNNY     91  73  55 E6        30.04F HX 100
SULPHUR SPRNGS MOSUNNY   92  69  46 E7        30.04F HX  97
MOUNT PLEASANT SUNNY     93  69  44 E8        30.03F HX  98
GILMER         MOSUNNY   90  71  53 N5        30.02F HX  96
TYLER          PTSUNNY   91  73  55 NE7       30.02F HX  99
LONGVIEW       MOSUNNY   90  74  59 E9        30.00F HX  99
MARSHALL       MOSUNNY   85  71  61 NE3       30.03F HX  90
ATHENS         MOSUNNY   88  72  58 E6        30.00F HX  94
PALESTINE      MOSUNNY   87  76  68 NE3       30.02F HX  98
JACKSONVILLE   MOSUNNY   88  75  63 N6        30.03F HX  98
HENDERSON      PTSUNNY   91  73  55 NE6       30.02F HX  98
CENTER         PTCLDY    92  74  56 E7        30.00F HX 102
NACOGDOCHES    PTSUNNY  N/A N/A N/A SE7       29.98S
LUFKIN         MOSUNNY   91  73  55 E8        29.98F HX  99
$$

SUPPLEMENTAL OBSERVATIONS (CENTRAL)

CITY           SKY/WX    TMP DP  RH WIND       PRES   REMARKS
$$

SUPPLEMENTAL OBSERVATIONS (WEST)

CITY           SKY/WX    TMP DP  RH WIND       PRES   REMARKS
$$

SUPPLEMENTAL OBSERVATIONS (EAST)

CITY           SKY/WX    TMP DP  RH WIND       PRES   REMARKS
$$

SUPPLEMENTAL OBSERVATIONS ARE A COLLECTION OF AUTOMATED INSTRUMENTS
THAT ARE MAINTAINED BY A VARIETY OF FEDERAL AND STATE AGENCIES.
CERTAIN ELEMENTS...SUCH AS HUMIDITY VALUES AND SUSTAINED WIND
SPEEDS...MAY BE APPROXIMATED.




USA.gov is the U.S. government's official web portal to all federal, state and local government web resources and services.